TimeCDT,TemperatureF,Dew PointF,Humidity,Sea Level PressureIn,VisibilityMPH,Wind Direction,Wind SpeedMPH,Gust SpeedMPH,PrecipitationIn,Events,Conditions,WindDirDegrees,DateUTC
12:15 AM,50.0,48.2,94,30.00,5.0,Calm,Calm,-,N/A,,Clear,0,2013-04-29 05:15:00
12:35 AM,50.0,48.2,94,30.00,3.0,Calm,Calm,-,N/A,,Clear,0,2013-04-29 05:35:00
12:55 AM,48.2,48.2,100,30.00,5.0,Calm,Calm,-,N/A,,Clear,0,2013-04-29 05:55:00
1:15 AM,48.2,48.2,100,30.00,4.0,Calm,Calm,-,N/A,,Clear,0,2013-04-29 06:15:00
1:35 AM,48.2,48.2,100,29.99,5.0,Calm,Calm,-,N/A,,Clear,0,2013-04-29 06:35:00
1:55 AM,48.2,48.2,100,29.99,5.0,Calm,Calm,-,N/A,,Clear,0,2013-04-29 06:55:00
2:15 AM,48.2,48.2,100,29.99,5.0,Calm,Calm,-,N/A,,Clear,0,2013-04-29 07:15:00
2:35 AM,48.2,48.2,100,29.98,5.0,Calm,Calm,-,N/A,,Clear,0,2013-04-29 07:35:00
2:55 AM,48.2,48.2,100,29.98,5.0,Calm,Calm,-,N/A,,Clear,0,2013-04-29 07:55:00
3:15 AM,48.2,46.4,93,29.98,5.0,Calm,Calm,-,N/A,,Clear,0,2013-04-29 08:15:00
3:55 AM,48.2,46.4,93,29.98,5.0,Calm,Calm,-,N/A,,Clear,0,2013-04-29 08:55:00
4:15 AM,46.4,46.4,100,29.98,5.0,Calm,Calm,-,N/A,,Clear,0,2013-04-29 09:15:00
4:35 AM,46.4,46.4,100,29.98,5.0,Calm,Calm,-,N/A,,Clear,0,2013-04-29 09:35:00
4:55 AM,46.4,46.4,100,29.98,4.0,Calm,Calm,-,N/A,,Clear,0,2013-04-29 09:55:00
5:15 AM,46.4,44.6,93,29.99,4.0,Calm,Calm,-,N/A,,Clear,0,2013-04-29 10:15:00
5:35 AM,46.4,46.4,100,29.99,4.0,Calm,Calm,-,N/A,,Clear,0,2013-04-29 10:35:00
5:55 AM,46.4,44.6,93,29.99,5.0,Calm,Calm,-,N/A,,Clear,0,2013-04-29 10:55:00
6:15 AM,44.6,44.6,100,30.00,3.0,Calm,Calm,-,N/A,,Clear,0,2013-04-29 11:15:00
6:35 AM,46.4,44.6,93,30.01,3.0,Calm,Calm,-,N/A,,Clear,0,2013-04-29 11:35:00
6:55 AM,48.2,46.4,93,30.01,3.0,Calm,Calm,-,N/A,,Clear,0,2013-04-29 11:55:00
7:15 AM,50.0,48.2,94,30.02,6.0,Calm,Calm,-,N/A,,Clear,0,2013-04-29 12:15:00
7:35 AM,53.6,53.6,100,30.03,7.0,Calm,Calm,-,N/A,,Clear,0,2013-04-29 12:35:00
7:55 AM,57.2,53.6,88,30.03,8.0,Calm,Calm,-,N/A,,Clear,0,2013-04-29 12:55:00
8:15 AM,59.0,55.4,88,30.03,8.0,Calm,Calm,-,N/A,,Clear,0,2013-04-29 13:15:00
8:35 AM,60.8,55.4,82,30.03,8.0,Calm,Calm,-,N/A,,Clear,0,2013-04-29 13:35:00
8:55 AM,62.6,53.6,72,30.03,8.0,Calm,Calm,-,N/A,,Clear,0,2013-04-29 13:55:00
9:15 AM,62.6,53.6,72,30.04,9.0,Calm,Calm,-,N/A,,Clear,0,2013-04-29 14:15:00
9:35 AM,64.4,53.6,68,30.03,9.0,SSW,4.6,-,N/A,,Clear,210,2013-04-29 14:35:00
9:55 AM,66.2,53.6,64,30.04,10.0,South,4.6,-,N/A,,Clear,190,2013-04-29 14:55:00
10:15 AM,66.2,50.0,56,30.04,8.0,Calm,Calm,-,N/A,,Clear,0,2013-04-29 15:15:00
11:15 AM,68.0,51.8,56,30.04,8.0,Calm,Calm,-,N/A,,Clear,0,2013-04-29 16:15:00
11:35 AM,69.8,50.0,49,30.03,9.0,SW,3.5,-,N/A,,Clear,220,2013-04-29 16:35:00
11:55 AM,71.6,50.0,46,30.03,8.0,SW,4.6,-,N/A,,Clear,220,2013-04-29 16:55:00
12:15 PM,71.6,50.0,46,30.02,8.0,SW,4.6,-,N/A,,Clear,230,2013-04-29 17:15:00
12:35 PM,71.6,48.2,43,30.02,8.0,Calm,Calm,-,N/A,,Clear,0,2013-04-29 17:35:00
12:55 PM,71.6,50.0,46,30.01,5.0,Calm,Calm,-,N/A,,Haze,0,2013-04-29 17:55:00
1:15 PM,73.4,50.0,44,30.00,8.0,West,3.5,-,N/A,,Clear,270,2013-04-29 18:15:00
1:35 PM,73.4,50.0,44,30.00,9.0,NNW,4.6,-,N/A,,Clear,340,2013-04-29 18:35:00
1:55 PM,75.2,50.0,41,29.99,10.0,North,3.5,-,N/A,,Clear,360,2013-04-29 18:55:00
2:15 PM,75.2,51.8,44,29.98,8.0,NW,4.6,-,N/A,,Clear,320,2013-04-29 19:15:00
2:35 PM,75.2,50.0,41,29.98,9.0,ESE,3.5,-,N/A,,Clear,110,2013-04-29 19:35:00
2:55 PM,75.2,50.0,41,29.97,9.0,Calm,Calm,-,N/A,,Clear,0,2013-04-29 19:55:00
3:15 PM,75.2,50.0,41,29.96,8.0,Calm,Calm,-,N/A,,Clear,0,2013-04-29 20:15:00
3:35 PM,75.2,50.0,41,29.96,10.0,WNW,5.8,-,N/A,,Clear,300,2013-04-29 20:35:00
3:55 PM,75.2,50.0,41,29.95,9.0,Calm,Calm,-,N/A,,Clear,0,2013-04-29 20:55:00
4:15 PM,75.2,50.0,41,29.94,9.0,Calm,Calm,-,N/A,,Clear,0,2013-04-29 21:15:00
4:35 PM,77.0,50.0,39,29.93,8.0,NNW,3.5,-,N/A,,Clear,330,2013-04-29 21:35:00
4:55 PM,77.0,50.0,39,29.93,9.0,West,3.5,-,N/A,,Clear,270,2013-04-29 21:55:00
5:15 PM,75.2,50.0,41,29.93,9.0,Calm,Calm,-,N/A,,Clear,0,2013-04-29 22:15:00
5:35 PM,75.2,50.0,41,29.93,7.0,Calm,Calm,-,N/A,,Clear,0,2013-04-29 22:35:00
5:55 PM,75.2,50.0,41,29.92,9.0,Calm,Calm,-,N/A,,Clear,0,2013-04-29 22:55:00
6:15 PM,75.2,50.0,41,29.92,10.0,Calm,Calm,-,N/A,,Clear,0,2013-04-29 23:15:00
6:35 PM,75.2,50.0,41,29.93,9.0,SW,5.8,-,N/A,,Clear,220,2013-04-29 23:35:00
6:55 PM,75.2,50.0,41,29.93,9.0,Calm,Calm,-,N/A,,Clear,0,2013-04-29 23:55:00
7:15 PM,71.6,55.4,57,29.93,9.0,Calm,Calm,-,N/A,,Clear,0,2013-04-30 00:15:00
7:35 PM,68.0,55.4,64,29.92,8.0,Calm,Calm,-,N/A,,Clear,0,2013-04-30 00:35:00
7:55 PM,66.2,55.4,68,29.93,8.0,Calm,Calm,-,N/A,,Clear,0,2013-04-30 00:55:00
8:15 PM,64.4,55.4,73,29.93,10.0,Calm,Calm,-,N/A,,Clear,0,2013-04-30 01:15:00
8:35 PM,62.6,57.2,82,29.94,9.0,Calm,Calm,-,N/A,,Clear,0,2013-04-30 01:35:00
8:55 PM,62.6,55.4,77,29.94,10.0,Calm,Calm,-,N/A,,Clear,0,2013-04-30 01:55:00
9:15 PM,60.8,55.4,82,29.95,10.0,Calm,Calm,-,N/A,,Clear,0,2013-04-30 02:15:00
9:35 PM,59.0,55.4,88,29.95,10.0,Calm,Calm,-,N/A,,Clear,0,2013-04-30 02:35:00
9:55 PM,59.0,55.4,88,29.95,9.0,Calm,Calm,-,N/A,,Clear,0,2013-04-30 02:55:00
10:35 PM,57.2,53.6,88,29.95,10.0,Calm,Calm,-,N/A,,Clear,0,2013-04-30 03:35:00
10:55 PM,57.2,53.6,88,29.94,10.0,Calm,Calm,-,N/A,,Clear,0,2013-04-30 03:55:00
11:15 PM,57.2,53.6,88,29.94,9.0,Calm,Calm,-,N/A,,Clear,0,2013-04-30 04:15:00
11:35 PM,57.2,53.6,88,29.95,9.0,Calm,Calm,-,N/A,,Clear,0,2013-04-30 04:35:00
11:55 PM,55.4,53.6,94,29.95,9.0,Calm,Calm,-,N/A,,Clear,0,2013-04-30 04:55:00